Weather History for New River MCAS, NC

Change the Weather History Date:

Sunday, November 4, 2012

  Actual Average Record
Temperature  
Mean Temperature 56 °F -  
Max Temperature 73 °F 67 °F 82 °F (2003)
Min Temperature 39 °F 45 °F 30 °F (2006)
Degree Days  
Heating Degree Days 10    
Growing Degree Days 6 (Base 50)    
Moisture  
Dew Point 43 °F    
Average Humidity 72    
Maximum Humidity 89    
Minimum Humidity 49    
Precipitation  
Precipitation 0.21 in - - ()
Sea Level Pressure  
Sea Level Pressure 30.01 in    
Wind  
Wind Speed 5 mph (NNE)    
Max Wind Speed 12 mph    
Max Gust Speed 34 mph    
Visibility 9 miles    
Events Rain , Thunderstorm    
Averages and records for this station are not official NWS values.
T = Trace of Precipitation, MM = Missing Value Source: NWS Daily Summary

Daily Weather History Graph

Daily Weather History Graph

Search for Another Location

Airport:

Trip Planner

Search our weather history database for the weather conditions in past years. The results will help you decide how hot, cold, wet, or windy it might be!

Date:

Astronomy

Nov. 04, 2012 Rise Set
Actual Time 6:33 AM EST 5:12 PM EST
Civil Twilight 6:07 AM EST 5:38 PM EST
Nautical Twilight 5:37 AM EST 6:08 PM EST
Astronomical Twilight 5:07 AM EST 6:38 PM EST
Moon 9:50 PM EST (11/4) 11:13 AM EST (11/4)
Length of Visible Light 11h 31m
Length of Day
10h 39m
Waning Gibbous, 72% of the Moon is Illuminated
Nov 4
Waning Gibbous
Nov 6
Last Quarter
Nov 13
New
Nov 20
First Quarter
Nov 28
Full

Hourly Weather History & Observations

Time (EST) Temp. Windchill Dew Point Humidity Pressure Visibility Wind Dir Wind Speed Gust Speed Precip Events Conditions
12:56 AM 39.9 °F - 37.0 °F 89% 30.09 in 10.0 mi Calm Calm - N/A   Clear
1:56 AM 42.1 °F - 37.0 °F 82% 30.11 in 10.0 mi Calm Calm - N/A   Clear
1:56 AM 41.0 °F - 37.9 °F 89% 30.09 in 10.0 mi Calm Calm - N/A   Mostly Cloudy
2:56 AM 42.1 °F - 37.9 °F 85% 30.08 in 10.0 mi Calm Calm - N/A   Partly Cloudy
3:56 AM 41.0 °F 39.0 °F 37.9 °F 89% 30.07 in 10.0 mi NNE 3.5 mph - N/A   Clear
4:56 AM 43.0 °F - 37.9 °F 82% 30.07 in 10.0 mi Calm Calm - N/A   Clear
5:56 AM 46.0 °F 44.8 °F 39.9 °F 79% 30.06 in 10.0 mi NNE 3.5 mph - N/A   Partly Cloudy
6:56 AM 46.9 °F - 41.0 °F 80% 30.05 in 10.0 mi East 8.1 mph - N/A   Scattered Clouds
7:56 AM 53.1 °F - 42.1 °F 66% 30.04 in 10.0 mi East 8.1 mph - N/A   Clear
8:56 AM 57.9 °F - 43.0 °F 58% 30.02 in 10.0 mi East 8.1 mph - N/A   Clear
9:56 AM 61.0 °F - 46.9 °F 60% 29.99 in 10.0 mi ESE 9.2 mph - N/A   Clear
10:56 AM 66.9 °F - 51.1 °F 57% 29.96 in 10.0 mi ESE 6.9 mph - N/A   Clear
11:56 AM 71.1 °F - 54.0 °F 55% 29.93 in 10.0 mi North 5.8 mph - N/A   Clear
12:56 PM 72.0 °F - 52.0 °F 49% 29.93 in 10.0 mi NNE 10.4 mph - N/A   Clear
1:56 PM 70.0 °F - 50.0 °F 49% 29.93 in 10.0 mi North 11.5 mph - N/A   Partly Cloudy
2:56 PM 66.0 °F - 48.9 °F 54% 29.94 in 10.0 mi North 10.4 mph - N/A   Partly Cloudy
3:56 PM 62.1 °F - 46.9 °F 58% 29.96 in 10.0 mi North 10.4 mph - N/A   Clear
4:56 PM 57.0 °F - 45.0 °F 64% 29.97 in 10.0 mi North 9.2 mph - N/A   Clear
5:56 PM 54.0 °F - 42.1 °F 64% 29.99 in 10.0 mi NNE 10.4 mph - N/A   Clear
6:56 PM 52.0 °F - 41.0 °F 66% 29.99 in 10.0 mi NNE 9.2 mph - N/A   Scattered Clouds
7:05 PM - - - N/A% - - North - - N/A   Unknown
7:56 PM 51.1 °F - 41.0 °F 68% 30.00 in 10.0 mi NNE 9.2 mph - N/A Thunderstorm Thunderstorm
8:56 PM 48.9 °F - 44.1 °F 83% 30.01 in 7.0 mi NNE 8.1 mph - 0.06 in Rain Light Rain
9:56 PM 48.0 °F - 43.0 °F 83% 29.99 in 10.0 mi NNE 6.9 mph - 0.00 in   Mostly Cloudy
10:15 PM 48.2 °F - 42.8 °F 82% 30.05 in 1.8 mi West 8.1 mph 34.5 mph 0.12 in Rain Heavy Rain
10:24 PM 46.4 °F 41.9 °F 42.8 °F 87% 30.02 in 3.0 mi North 9.2 mph - 0.15 in Rain Rain
10:56 PM 46.9 °F - 43.0 °F 86% 30.01 in 10.0 mi North 5.8 mph - 0.15 in   Scattered Clouds